Wiscasset, ME

10:06 AM EDT on June 22, 2018 (GMT -0400)
Wiscasset

Weather History for KIWI - May, 2018

Change the Weather History Date:

Monday, May 21, 2018

  Actual Average Record
Temperature  
Mean Temperature 58 °F -  
Max Temperature 75 °F 61 °F 80 °F (1998)
Min Temperature 43 °F 40 °F 30 °F (2002)
Degree Days  
Heating Degree Days 7    
Growing Degree Days 8 (Base 50)    
Moisture  
Dew Point 44 °F    
Average Humidity 62    
Maximum Humidity 97    
Minimum Humidity 26    
Precipitation  
Precipitation 0.00 in - - ()
Sea Level Pressure  
Sea Level Pressure 30.07 in    
Wind  
Wind Speed 4 mph (SW)    
Max Wind Speed 14 mph    
Max Gust Speed 24 mph    
Visibility 10 miles    
Events      
Averages and records for this station are not official NWS values.
T = Trace of Precipitation, MM = Missing Value Source: NWS Daily Summary

Daily Weather History Graph

Daily Weather History Graph

Search for Another Location

Airport or City:

Astronomy

May. 21, 2018 Rise Set
Actual Time 5:06 AM EDT 8:04 PM EDT
Civil Twilight 4:32 AM EDT 8:38 PM EDT
Nautical Twilight 3:49 AM EDT 9:22 PM EDT
Astronomical Twilight 2:58 AM EDT 10:14 PM EDT
Moon 11:29 AM EDT (5/21) 1:09 AM EDT (5/21)
Length of Visible Light 16h 05m
Length of Day
14h 57m
Waxing Crescent, 45% of the Moon is Illuminated
May 21
Waxing Crescent
May 21
First Quarter
May 29
Full
Jun 6
Last Quarter
Jun 13
New

Hourly Weather History & Observations

Time (EDT) Temp. Dew Point Humidity Pressure Visibility Wind Dir Wind Speed Gust Speed Precip Events Conditions
12:53 AM 50.0 °F 46.9 °F 89% 30.02 in 10.0 mi NW 3.5 mph - N/A   Clear
1:53 AM 48.0 °F 46.0 °F 93% 30.03 in 10.0 mi Calm Calm - N/A   Clear
2:53 AM 45.0 °F 44.1 °F 97% 30.05 in 10.0 mi Calm Calm - N/A   Clear
3:53 AM 44.1 °F 43.0 °F 96% 30.06 in 10.0 mi Calm Calm - N/A   Clear
4:53 AM 43.0 °F 42.1 °F 97% 30.07 in 10.0 mi Calm Calm - N/A   Clear
5:53 AM 44.1 °F 43.0 °F 96% 30.09 in 10.0 mi Calm Calm - N/A   Clear
6:53 AM 55.9 °F 43.0 °F 62% 30.11 in 10.0 mi WNW 3.5 mph - N/A   Clear
7:53 AM 60.1 °F 44.1 °F 55% 30.13 in 10.0 mi Variable 5.8 mph - N/A   Clear
8:53 AM 62.1 °F 42.1 °F 48% 30.13 in 10.0 mi West 6.9 mph - N/A   Clear
9:53 AM 64.9 °F 41.0 °F 42% 30.12 in 10.0 mi Variable 4.6 mph - N/A   Clear
10:53 AM 69.1 °F 43.0 °F 39% 30.10 in 10.0 mi North - - N/A   Clear
11:53 AM 71.1 °F 37.9 °F 30% 30.09 in 10.0 mi Variable 5.8 mph - N/A   Clear
12:53 PM 73.9 °F 37.0 °F 26% 30.06 in 10.0 mi Variable 4.6 mph 16.1 mph N/A   Clear
1:53 PM 72.0 °F 43.0 °F 35% 30.04 in 10.0 mi SW 9.2 mph 24.2 mph N/A   Clear
2:53 PM 71.1 °F 42.1 °F 35% 30.03 in 10.0 mi SW 12.7 mph 23.0 mph N/A   Clear
3:53 PM 72.0 °F 42.1 °F 34% 30.01 in 10.0 mi SW 13.8 mph 21.9 mph N/A   Clear
4:53 PM 69.1 °F 45.0 °F 42% 30.01 in 10.0 mi SW 8.1 mph 18.4 mph N/A   Clear
5:53 PM 68.0 °F 46.0 °F 45% 30.01 in 10.0 mi SSW 10.4 mph - N/A   Clear
6:53 PM 66.0 °F 46.0 °F 48% 30.03 in 10.0 mi SSW 5.8 mph - N/A   Clear
7:53 PM 63.0 °F 46.0 °F 54% 30.06 in 10.0 mi SSW 4.6 mph - N/A   Clear
8:53 PM 55.0 °F 48.9 °F 80% 30.09 in 10.0 mi Calm Calm - N/A   Clear
9:53 PM 55.0 °F 48.0 °F 77% 30.11 in 10.0 mi SSE 5.8 mph - N/A   Clear
10:53 PM 52.0 °F 48.0 °F 86% 30.11 in 10.0 mi Calm Calm - N/A   Clear
11:53 PM 50.0 °F 48.0 °F 93% 30.11 in 10.0 mi Calm Calm - N/A   Clear